Location: Azul
(36.7830°S, 59.8500°W)
Time: 03:14:46
(UTC-03:00)

ISS - Pass Details

Date: 23 May 2019
Orbit: 407 x 410 km, 51.6° (Epoch: 23 May)

Event Time Altitude Azimuth Distance (km) Brightness Sun altitude
Rises 06:38:52 0° 341° (NNW) 2,333 0.0 -15.5°
Reaches altitude 10° 06:41:13 10° 356° (N) 1,479 -0.9 -15.0°
Maximum altitude 06:43:53 22° 49° (NE) 949 -1.2 -14.5°
Drops below altitude 10° 06:46:35 10° 103° (ESE) 1,495 0.0 -14.0°
Sets 06:48:58 0° 118° (ESE) 2,365 0.8 -13.5°
